Flag for Iran Weather past 2 weeks in Esfahãn, Iran

Now
93 °F

Passing clouds.


Feels Like: 89 °F
Forecast: 60 / 94 °F
Wind: 7 mph from North

Location: Esfahan

Current Time: Aug 30, 2015 at 6:59:19 PM

Latest Report: Aug 30, 2015 at 6:30 PM


Visibility: N/A

Pressure: 29.98 "Hg (25.16 "Hg at 1576m altitude)

Humidity: 9%

Dew point: 27 °F

Location of EsfahãnLocation

Historic Weather in Esfahãn — Graph

°F

Esfahãn temperature yesterday

Maximum temperature yesterday: 95 °F (at 3:30 PM)
Minimum temperature yesterday: 57 °F (at 7:30 AM)
Average temperature yesterday: 79 °F

Past Weeks' High & Low Weather Summary

 TemperatureHumidityPressure
High100 °F (Aug 19, 4:00 PM)43% (Aug 28, 2:30 AM)30.12 "Hg (Aug 28, 2:30 AM)
Low54 °F (Aug 16, 6:00 AM)2% (Aug 24, 5:30 PM)29.80 "Hg (Aug 23, 5:00 PM)
Average81 °F13%30.00 "Hg
* Reported Aug 15 5:30 PM — Aug 30 5:30 PM, Esfahãn, Weather by CustomWeather, © 2015

Note: Actual official high and low records may vary slightly from our data, if they occured in-between our weather recording intervals... More about our weather records

Advertising

Esfahãn weather history for previous 24 hours

 ConditionsComfort  
Time TempWeatherWind HumidityBarometerVisibility
5:30 PM
Sun, Aug 30
93 °FPassing clouds.7 mph9%29.98 "HgN/A
5:00 PM93 °FPassing clouds.7 mph10%30.01 "HgN/A
4:30 PM93 °FPassing clouds.12 mph10%30.01 "HgN/A
4:00 PM93 °FPassing clouds.7 mph11%30.01 "HgN/A
3:30 PM93 °FPassing clouds.5 mph11%30.04 "HgN/A
3:00 PM91 °FPassing clouds.7 mph13%30.04 "Hg5 mi
2:30 PM91 °FPassing clouds.9 mph14%30.04 "Hg4 mi
2:00 PM90 °FPassing clouds.9 mph14%30.07 "Hg4 mi
1:30 PM88 °FPassing clouds.9 mph15%30.07 "Hg4 mi
1:00 PM88 °FClear.7 mph15%30.07 "Hg4 mi
12:30 PM86 °FClear.7 mph15%30.09 "Hg4 mi
12:00 PM86 °FClear.5 mph15%30.09 "Hg4 mi
11:30 AM84 °FClear.7 mph19%30.12 "Hg4 mi
11:00 AM82 °FClear.12 mph20%30.12 "Hg4 mi
10:30 AM79 °FClear.5 mph23%30.12 "Hg4 mi
10:00 AM77 °FHaze.5 mph22%30.12 "Hg3 mi
9:30 AM75 °FHaze.7 mph25%30.12 "Hg3 mi
9:00 AM72 °FHaze.7 mph29%30.12 "Hg2 mi
8:00 AM68 °FHaze.No wind30%30.12 "Hg3 mi
7:30 AM61 °FHaze.5 mph34%30.09 "Hg3 mi
7:00 AM61 °FClear.No wind34%30.09 "Hg4 mi
6:30 AM64 °FClear.5 mph32%30.09 "Hg4 mi
6:00 AM63 °FClear.5 mph34%30.09 "Hg4 mi
5:30 AM63 °FClear.5 mph32%30.09 "Hg5 mi
5:00 AM68 °FClear.5 mph24%30.09 "Hg10 mi
4:30 AM72 °FClear.No wind23%30.09 "Hg10 mi
4:00 AM72 °FClear.7 mph23%30.09 "Hg10 mi
3:30 AM72 °FClear.7 mph23%30.09 "Hg10 mi
3:00 AM70 °FClear.5 mph25%30.09 "Hg10 mi
2:00 AM75 °FClear.7 mph22%30.09 "Hg10 mi
1:30 AM72 °FClear.7 mph23%30.09 "Hg10 mi
1:00 AM70 °FClear.7 mph25%30.09 "Hg10 mi
12:30 AM72 °FClear.7 mph22%30.09 "Hg10 mi
12:00 AM75 °FPassing clouds.5 mph22%30.09 "HgN/A
11:30 PM
Sat, Aug 29
79 °FPassing clouds.5 mph20%30.09 "HgN/A
11:00 PM81 °FPassing clouds.5 mph18%30.09 "HgN/A
10:30 PM81 °FPassing clouds.5 mph18%30.09 "HgN/A
10:00 PM81 °FPassing clouds.9 mph18%30.09 "HgN/A
9:30 PM84 °FThunderstorms. Passing clouds.12 mph16%30.09 "HgN/A
9:00 PM84 °FScattered clouds.14 mph16%30.09 "HgN/A
8:30 PM86 °FBroken clouds.18 mph14%30.07 "Hg5 mi
8:00 PM86 °FScattered clouds.18 mph15%30.04 "Hg4 mi
7:30 PM88 °FScattered clouds.26 mph15%30.04 "Hg4 mi
7:00 PM88 °FScattered clouds.24 mph15%30.04 "Hg4 mi
6:30 PM91 °FSandstorm.22 mph10%30.01 "Hg3 mi
6:00 PM95 °FSandstorm.22 mph7%30.01 "Hg3 mi
Weather by CustomWeather, © 2015

See weather overviewHow to use our weather pages